Location: Martz Observatory
(42.0083°N, 79.0667°W)
Time: 17:59:53
(UTC-04:00)

Cosmos 1818 - Pass Details

Date: 26 May 2018
Orbit: 772 x 802 km, 65.0° (Epoch: 15 August)

Event Time Altitude Azimuth Distance (km) Brightness Sun altitude
Exits shadow 01:13:47 53° 269° (W) 960 3.9 -26.9°
Maximum altitude 01:14:36 60° 306° (NW) 903 3.9 -26.9°
Drops below altitude 10° 01:19:59 10° 27° (NNE) 2,369 6.8 -26.9°
Sets 01:22:28 0° 31° (NNE) 3,307 7.7 -26.8°
